Tacoma, WA
on Wednesday, November 7, 2012

Wednesday
Previous Day Next Day
Daily Summary
 ActualAverage (KSEA)Record (KSEA)
Temperature
Mean Temperature °F 47°F  
Max Temperature 53°F 53°F 62°F (2008)
Min Temperature 32°F 42°F 31°F (1952)
Degree Days
Heating Degree Days 20 18  
Month to date heating degree days 119  
Since 1 July heating degree days 716  
Cooling Degree Days 0 0  
Month to date cooling degree days 0  
Year to date cooling degree days 189  
Moisture
Dew Point 40°F   
Average Humidity 85    
Maximum Humidity 99    
Minimum Humidity 56    
Precipitation
Precipitation 0.00 in 0.20 in 1.93 in (1995)
Month to date precipitation 1.39  
Year to date precipitation 26.96  
Snow
Snow 0.00 in in T in (1945)
Month to date snowfall  
Since 1 July snowfall  
Snow Depth in   
Wind
Wind Speed 8 mph   
Max Wind Speed 12 mph   
Max Gust Speed mph   
Visibility 10 miles   
Events     

Key: T is trace of precipitation, MM is missing value
Source: NWS Daily Summary
Time(PST)TemperatureDew PointHumidity Pressure Visibility Wind DirectionWind SpeedGust SpeedPrecipitationEvents Conditions
12:58 AM 45.1°F 45.0°F 99% 30.09 in 10.0 miles SSW 8.1 mph - N/A   Clear
1:58 AM 43.2°F 42.8°F 99% 30.10 in 10.0 miles South 8.1 mph - N/A   Clear
2:58 AM 42.8°F 42.4°F 99% 30.12 in 10.0 miles South 10.4 mph - N/A   Clear
3:58 AM 42.6°F 42.4°F 99% 30.12 in 10.0 miles South 11.5 mph - N/A   Clear
4:58 AM 43.0°F 42.8°F 99% 30.13 in 10.0 miles South 10.4 mph - N/A   Clear
5:58 AM 42.1°F 41.7°F 99% 30.15 in 10.0 miles SSE 6.9 mph - N/A   Mostly Cloudy
6:58 AM 41.5°F 41.0°F 98% 30.15 in 10.0 miles South 10.4 mph - N/A   Clear
7:58 AM 43.9°F 43.2°F 97% 30.16 in 10.0 miles South 8.1 mph - N/A   Mostly Cloudy
8:58 AM 46.6°F 42.1°F 84% 30.16 in 10.0 miles South 9.2 mph - N/A   Clear
9:58 AM 49.1°F 41.9°F 76% 30.16 in 10.0 miles South 10.4 mph - N/A   Clear
10:58 AM 51.6°F 41.2°F 68% 30.16 in 10.0 miles SSW 11.5 mph - N/A   Clear
11:58 AM 53.2°F 39.7°F 60% 30.15 in 10.0 miles SSW 10.4 mph - N/A   Partly Cloudy
12:58 PM 53.2°F 37.8°F 56% 30.14 in 10.0 miles WSW 5.8 mph - N/A   Partly Cloudy
1:58 PM 51.3°F 37.4°F 59% 30.13 in 10.0 miles WSW 8.1 mph - N/A   Clear
2:58 PM 52.3°F 37.9°F 58% 30.11 in 10.0 miles SSW 8.1 mph - N/A   Clear
3:58 PM 50.4°F 38.5°F 64% 30.10 in 10.0 miles South 4.6 mph - N/A   Clear
4:58 PM 48.6°F 39.9°F 72% 30.08 in 10.0 miles SW 2.3 mph - N/A   Mostly Cloudy
5:58 PM 42.4°F 39.6°F 90% 30.07 in 10.0 miles South 4.6 mph - N/A   Clear
6:58 PM 40.6°F 37.9°F 90% 30.06 in 10.0 miles East 2.3 mph - N/A   Clear
7:58 PM 38.1°F 37.9°F 99% 30.05 in 10.0 miles ESE 2.3 mph - N/A   Mostly Cloudy
8:58 PM 39.6°F 38.5°F 96% 30.03 in 10.0 miles East 1.2 mph - N/A   Overcast
9:58 PM 39.9°F 37.8°F 92% 30.02 in 10.0 miles Calm Calm - N/A   Partly Cloudy
10:58 PM 36.9°F 36.3°F 98% 29.98 in 10.0 miles East 2.3 mph - N/A   Clear
11:58 PM 32.2°F 31.6°F 98% 29.96 in 10.0 miles Calm Calm - N/A   Clear
Moon Phase
Nov. 07 Nov. 13 Nov. 20 Nov. 28 Dec. 06
Sunrise:07:02 AM (PST) Moon Rise:No Moon Rise/
Sunset:04:43 PM (PST) Moon Set:01:19 PM (PST)11/7

Copyright © 2014 The Weather Underground, Inc.